Weather History for Brisbane, QU

Change the Weather History Date:

Saturday, April 20, 2013

  Actual Average Record
Temperature  
Mean Temperature 66 °F -  
Max Temperature 76 °F 76 °F 82 °F (2002)
Min Temperature 56 °F 59 °F 56 °F (2013)
Cooling Degree Days 1    
Growing Degree Days 16 (Base 50)    
Moisture  
Dew Point 44 °F    
Average Humidity 49    
Maximum Humidity 88    
Minimum Humidity 12    
Precipitation  
Precipitation 0.00 in 0.13 in - ()
Sea Level Pressure  
Sea Level Pressure 29.83 in    
Wind  
Wind Speed 7 mph ()    
Max Wind Speed 17 mph    
Max Gust Speed -    
Visibility 11.1 miles    
Events      
Averages and records for this station are not official NWS values.
T = Trace of Precipitation, MM = Missing Value Source: Averaged Metar Reports

Daily Weather History Graph

Daily Weather History Graph

Search for Another Location

Airport:

Trip Planner

Search our weather history database for the weather conditions in past years. The results will help you decide how hot, cold, wet, or windy it might be!

Date:

Astronomy

Apr. 20, 2013 Rise Set
Actual Time 6:06 AM AEST 5:25 PM AEST
Civil Twilight 5:43 AM AEST 5:49 PM AEST
Nautical Twilight 5:15 AM AEST 6:16 PM AEST
Astronomical Twilight 4:48 AM AEST 6:43 PM AEST
Moon 1:33 PM AEST (4/20) 12:20 AM AEST (4/20)
Length of Visible Light 12h 06m
Length of Day
11h 19m
Waxing Gibbous, 65% of the Moon is Illuminated
Apr 20
Waxing Gibbous
Apr 26
Full
May 2
Last Quarter
May 10
New
May 18
First Quarter

Hourly Weather History & Observations

Time (AEST) Temp. Dew Point Humidity Pressure Visibility Wind Dir Wind Speed Gust Speed Precip Events Conditions
12:00 AM 62 °F 54 °F 66% 29.88 in 19 mi SW 4.6 mph - -   Partly Cloudy
12:00 AM 60.8 °F 53.6 °F 77% 29.86 in - SW 4.6 mph - N/A   Clear
12:30 AM 62.6 °F 53.6 °F 72% 29.86 in - SW 5.8 mph - N/A   Clear
1:00 AM 61 °F 54 °F 72% 29.87 in - SSW 5.8 mph - -  
1:00 AM 60.8 °F 53.6 °F 77% 29.86 in - SSW 5.8 mph - N/A   Clear
1:30 AM 59.0 °F 53.6 °F 82% 29.86 in - WSW 5.8 mph - N/A   Clear
2:00 AM 59.0 °F 51.8 °F 77% 29.86 in 6.2 mi SSW 4.6 mph - N/A   Mostly Cloudy
2:30 AM 59.0 °F 51.8 °F 77% 29.83 in - SSW 4.6 mph - N/A   Clear
3:00 AM 58 °F 54 °F 80% 29.84 in 19 mi SW 6.9 mph - -   Partly Cloudy
3:00 AM 57.2 °F 53.6 °F 88% 29.83 in - SW 6.9 mph - N/A   Clear
3:30 AM 57.2 °F 51.8 °F 82% 29.83 in - SSW 8.1 mph - N/A   Clear
4:00 AM 58 °F 48 °F 61% 29.84 in - SSW 5.8 mph - -  
4:00 AM 57.2 °F 48.2 °F 72% 29.83 in - SSW 5.8 mph - N/A   Clear
4:30 AM 57.2 °F 48.2 °F 72% 29.83 in - South 6.9 mph - N/A   Clear
5:00 AM 57.2 °F 51.8 °F 82% 29.83 in - SSW 4.6 mph - N/A   Clear
5:30 AM 57.2 °F 51.8 °F 82% 29.83 in - SSW 5.8 mph - N/A   Clear
6:00 AM 57 °F 49 °F 65% 29.86 in 19 mi SW 8.1 mph - -   Partly Cloudy
6:00 AM 57.2 °F 48.2 °F 72% 29.83 in - SW 8.1 mph - N/A   Clear
6:30 AM 57.2 °F 50.0 °F 77% 29.86 in 6.2 mi SW 4.6 mph - N/A   Partly Cloudy
7:00 AM 59.0 °F 48.2 °F 67% 29.86 in 6.2 mi South 5.8 mph - N/A   Scattered Clouds
7:30 AM 60.8 °F 48.2 °F 63% 29.86 in 6.2 mi SSW 9.2 mph - N/A   Scattered Clouds
8:00 AM 64.4 °F 46.4 °F 52% 29.86 in 6.2 mi SSW 8.1 mph - N/A   Partly Cloudy
8:30 AM 66.2 °F 46.4 °F 49% 29.86 in 6.2 mi SW 9.2 mph - N/A   Scattered Clouds
9:00 AM 68 °F 46 °F 34% 29.88 in 19 mi SW 8.1 mph - -   Haze
9:00 AM 68.0 °F 46.4 °F 46% 29.86 in 6.2 mi SW 8.1 mph - N/A   Partly Cloudy
9:30 AM 69.8 °F 46.4 °F 43% 29.86 in 6.2 mi WSW 5.8 mph - N/A   Partly Cloudy
10:00 AM 72 °F 47 °F 29% 29.87 in - SSW 6.9 mph - -  
10:00 AM 71.6 °F 46.4 °F 41% 29.86 in 6.2 mi SSW 6.9 mph - N/A   Partly Cloudy
10:30 AM 73.4 °F 42.8 °F 33% 29.86 in 6.2 mi SSW 5.8 mph - N/A   Partly Cloudy
11:00 AM 73.4 °F 37.4 °F 27% 29.83 in 6.2 mi WSW 6.9 mph - N/A   Partly Cloudy
11:30 AM 75.2 °F 32.0 °F 21% 29.83 in 6.2 mi SW 8.1 mph - N/A   Scattered Clouds
12:00 PM 75 °F 32 °F 12% 29.81 in 19 mi WSW 11.5 mph - -   Partly Cloudy
12:00 PM 75.2 °F 32.0 °F 21% 29.80 in 6.2 mi WSW 11.5 mph - N/A   Scattered Clouds
12:30 PM 73.4 °F 32.0 °F 22% 29.80 in - WSW 15.0 mph - N/A   Clear
1:00 PM 75 °F 36 °F 15% 29.79 in - WSW 12.7 mph - -  
1:00 PM 75.2 °F 35.6 °F 24% 29.77 in - WSW 12.7 mph - N/A   Clear
1:30 PM 75.2 °F 39.2 °F 27% 29.77 in - West 15.0 mph - N/A   Clear
2:00 PM 75.2 °F 33.8 °F 22% 29.77 in - SW 13.8 mph - N/A   Clear
2:30 PM 75.2 °F 37.4 °F 25% 29.77 in - WSW 12.7 mph - N/A   Clear
3:00 PM 76 °F 36 °F 14% 29.78 in 19 mi SW 15.0 mph - -   Haze
3:00 PM 75.2 °F 35.6 °F 24% 29.77 in - SW 15.0 mph - N/A   Clear
3:30 PM 75.2 °F 37.4 °F 25% 29.77 in - WSW 15.0 mph - N/A   Clear
4:00 PM 75 °F 37 °F 16% 29.78 in - SW 12.7 mph - -  
4:00 PM 75.2 °F 37.4 °F 25% 29.77 in - SW 12.7 mph - N/A   Clear
4:30 PM 75.2 °F 37.4 °F 25% 29.77 in - WSW 15.0 mph - N/A   Clear
5:00 PM 73.4 °F 33.8 °F 23% 29.80 in - WSW 17.3 mph - N/A   Clear
5:30 PM 68.0 °F 39.2 °F 35% 29.80 in - West 11.5 mph - N/A   Clear
6:00 PM 67 °F 40 °F 26% 29.82 in 19 mi WSW 10.4 mph - -   Partly Cloudy
6:00 PM 66.2 °F 39.2 °F 37% 29.80 in - WSW 10.4 mph - N/A   Clear
6:30 PM 62.6 °F 44.6 °F 52% 29.80 in - WSW 9.2 mph - N/A   Clear
7:00 PM 63 °F 43 °F 37% 29.84 in - SW 9.2 mph - -  
7:00 PM 62.6 °F 42.8 °F 48% 29.83 in - SW 9.2 mph - N/A   Clear
7:30 PM 62.6 °F 42.8 °F 48% 29.83 in - WSW 10.4 mph - N/A   Clear
8:00 PM 62.6 °F 41.0 °F 45% 29.86 in - SW 6.9 mph - N/A   Clear
8:30 PM 64.4 °F 39.2 °F 40% 29.86 in - SW 6.9 mph - N/A   Clear
9:00 PM 62 °F 41 °F 34% 29.87 in 19 mi SW 5.8 mph - -   Partly Cloudy
9:00 PM 62.6 °F 41.0 °F 45% 29.86 in - SW 5.8 mph - N/A   Clear
9:30 PM 60.8 °F 44.6 °F 55% 29.86 in - WSW 5.8 mph - N/A   Clear
10:00 PM 59 °F 44 °F 47% 29.88 in - WSW 6.9 mph - -  
10:00 PM 59.0 °F 44.6 °F 59% 29.86 in - WSW 6.9 mph - N/A   Clear
10:30 PM 57.2 °F 46.4 °F 67% 29.86 in - WSW 6.9 mph - N/A   Clear
11:00 PM 57.2 °F 46.4 °F 67% 29.86 in - West 4.6 mph - N/A   Clear
11:30 PM 57.2 °F 44.6 °F 63% 29.86 in - WSW 5.8 mph - N/A   Clear